• In Österreich
  • Länderverzeichnis
  • Für 7 Tage
  • Wassertemperatur
  • Satellitenkarten
  • Wetterkarte
  • News
  • Widgets
  • user-avatar
    Anmelden

    Stündliche Wetter Kavunivka

    Heute, 19 September, Mittwoch

    Zeit Temperatur Niederschläge Wind Luftdruck Luftfeuchtigkeit
    00:00 +16°C° 0 mm 1 m/S 750 mmHg 65%
    01:00 +16°C° 0 mm 1 m/S 750 mmHg 67%
    02:00 +16°C° 0 mm 1 m/S 750 mmHg 67%
    03:00 +16°C° 0 mm 1 m/S 750 mmHg 68%
    04:00 +15°C° 0 mm 1 m/S 750 mmHg 69%
    05:00 +15°C° 0 mm 1 m/S 750 mmHg 70%
    06:00 +16°C° 0 mm 1 m/S 750 mmHg 66%
    07:00 +19°C° 0 mm 1 m/S 750 mmHg 62%
    08:00 +20°C° 0 mm 1 m/S 751 mmHg 57%
    09:00 +22°C° 0 mm 1 m/S 751 mmHg 52%
    10:00 +24°C° 0 mm 2 m/S 751 mmHg 48%
    11:00 +25°C° 0 mm 2 m/S 751 mmHg 43%
    12:00 +26°C° 0 mm 2 m/S 751 mmHg 40%
    13:00 +27°C° 0 mm 2 m/S 750 mmHg 38%
    14:00 +28°C° 0 mm 2 m/S 750 mmHg 36%
    15:00 +27°C° 0 mm 2 m/S 750 mmHg 38%
    16:00 +26°C° 0 mm 2 m/S 750 mmHg 41%
    17:00 +26°C° 0 mm 1 m/S 750 mmHg 44%
    18:00 +24°C° 0 mm 1 m/S 750 mmHg 47%
    19:00 +23°C° 0 mm 1 m/S 750 mmHg 50%
    20:00 +21°C° 0 mm 1 m/S 750 mmHg 53%
    21:00 +21°C° 0 mm 1 m/S 750 mmHg 55%
    22:00 +20°C° 0 mm 1 m/S 750 mmHg 56%
    23:00 +20°C° 0 mm 1 m/S 750 mmHg 58%

    Morgen, 20 September, Donnerstag

    Zeit Temperatur Niederschläge Wind Luftdruck Luftfeuchtigkeit
    00:00 +19°C° 0 mm 1 m/S 750 mmHg 59%
    01:00 +19°C° 0 mm 1 m/S 750 mmHg 60%
    02:00 +19°C° 0 mm 1 m/S 750 mmHg 61%
    03:00 +18°C° 0 mm 1 m/S 750 mmHg 61%
    04:00 +18°C° 0 mm 1 m/S 750 mmHg 62%
    05:00 +16°C° 0 mm 1 m/S 749 mmHg 63%
    06:00 +18°C° 0 mm 2 m/S 750 mmHg 59%
    07:00 +19°C° 0 mm 2 m/S 750 mmHg 56%
    08:00 +20°C° 0 mm 2 m/S 750 mmHg 53%
    09:00 +23°C° 0 mm 2 m/S 750 mmHg 48%
    10:00 +25°C° 0 mm 2 m/S 750 mmHg 43%
    11:00 +27°C° 0 mm 2 m/S 750 mmHg 38%
    12:00 +27°C° 0 mm 2 m/S 750 mmHg 36%
    13:00 +28°C° 0 mm 2 m/S 749 mmHg 34%
    14:00 +29°C° 0 mm 2 m/S 749 mmHg 32%
    15:00 +28°C° 0 mm 2 m/S 749 mmHg 36%
    16:00 +27°C° 0 mm 2 m/S 749 mmHg 39%
    17:00 +26°C° 0 mm 1 m/S 748 mmHg 42%
    18:00 +25°C° 0 mm 1 m/S 748 mmHg 45%
    19:00 +23°C° 0 mm 1 m/S 748 mmHg 48%
    20:00 +22°C° 0 mm 1 m/S 748 mmHg 52%
    21:00 +21°C° 0 mm 1 m/S 748 mmHg 54%
    22:00 +21°C° 0 mm 1 m/S 748 mmHg 56%
    23:00 +20°C° 0 mm 1 m/S 749 mmHg 58%

    übermorgen, 21 September, Freitag

    Zeit Temperatur Niederschläge Wind Luftdruck Luftfeuchtigkeit
    00:00 +20°C° 0 mm 1 m/S 749 mmHg 61%
    01:00 +19°C° 0 mm 1 m/S 749 mmHg 63%
    02:00 +19°C° 0 mm 1 m/S 749 mmHg 65%
    03:00 +16°C° 0 mm 0 m/S 749 mmHg 67%
    04:00 +16°C° 0 mm 0 m/S 749 mmHg 69%
    05:00 +16°C° 0 mm 0 m/S 749 mmHg 71%
    06:00 +17°C° 0 mm 0 m/S 749 mmHg 67%
    07:00 +21°C° 0 mm 1 m/S 749 mmHg 63%
    08:00 +22°C° 0 mm 1 m/S 749 mmHg 59%
    09:00 +24°C° 0 mm 1 m/S 749 mmHg 54%
    10:00 +25°C° 0 mm 1 m/S 749 mmHg 49%
    11:00 +27°C° 0 mm 1 m/S 749 mmHg 44%
    12:00 +28°C° 0 mm 1 m/S 749 mmHg 41%
    13:00 +26°C° 0 mm 0 m/S 749 mmHg 38%
    14:00 +27°C° 0 mm 0 m/S 749 mmHg 35%
    15:00 +26°C° 0 mm 0 m/S 748 mmHg 38%
    16:00 +28°C° 0 mm 1 m/S 748 mmHg 40%
    17:00 +27°C° 0 mm 1 m/S 748 mmHg 42%
    18:00 +25°C° 0 mm 1 m/S 748 mmHg 46%
    19:00 +24°C° 0 mm 2 m/S 748 mmHg 49%
    20:00 +21°C° 0 mm 2 m/S 748 mmHg 52%
    21:00 +21°C° 0 mm 2 m/S 748 mmHg 54%
    22:00 +20°C° 0 mm 2 m/S 748 mmHg 55%
    23:00 +20°C° 0 mm 2 m/S 748 mmHg 57%

    22 September, Samstag

    Zeit Temperatur Niederschläge Wind Luftdruck Luftfeuchtigkeit
    00:00 +19°C° 0 mm 2 m/S 748 mmHg 58%
    01:00 +19°C° 0 mm 2 m/S 748 mmHg 58%
    02:00 +19°C° 0 mm 2 m/S 748 mmHg 59%
    03:00 +18°C° 0 mm 2 m/S 747 mmHg 59%
    04:00 +18°C° 0 mm 2 m/S 747 mmHg 59%
    05:00 +18°C° 0 mm 2 m/S 747 mmHg 60%
    06:00 +19°C° 0 mm 2 m/S 747 mmHg 57%
    07:00 +21°C° 0 mm 2 m/S 747 mmHg 54%
    08:00 +23°C° 0 mm 2 m/S 747 mmHg 51%
    09:00 +25°C° 0 mm 3 m/S 747 mmHg 45%
    10:00 +27°C° 0 mm 3 m/S 747 mmHg 39%
    11:00 +29°C° 0 mm 3 m/S 747 mmHg 34%
    12:00 +29°C° 0 mm 3 m/S 747 mmHg 32%
    13:00 +29°C° 0 mm 3 m/S 746 mmHg 31%
    14:00 +30°C° 0 mm 3 m/S 746 mmHg 29%
    15:00 +29°C° 0 mm 3 m/S 745 mmHg 32%
    16:00 +28°C° 0 mm 2 m/S 745 mmHg 35%
    17:00 +27°C° 0 mm 2 m/S 745 mmHg 38%
    18:00 +26°C° 0 mm 2 m/S 745 mmHg 39%
    19:00 +24°C° 0 mm 2 m/S 745 mmHg 41%
    20:00 +23°C° 0 mm 2 m/S 745 mmHg 43%
    21:00 +21°C° 0 mm 2 m/S 744 mmHg 44%
    22:00 +21°C° 0 mm 3 m/S 744 mmHg 45%
    23:00 +20°C° 0 mm 3 m/S 744 mmHg 46%

    23 September, Sonntag

    Zeit Temperatur Niederschläge Wind Luftdruck Luftfeuchtigkeit
    00:00 +20°C° 0 mm 3 m/S 743 mmHg 48%
    01:00 +20°C° 0 mm 4 m/S 743 mmHg 49%
    02:00 +20°C° 0 mm 4 m/S 743 mmHg 50%
    03:00 +19°C° 0 mm 5 m/S 743 mmHg 54%
    04:00 +17°C° 0 mm 5 m/S 743 mmHg 57%
    05:00 +16°C° 0 mm 6 m/S 743 mmHg 61%
    06:00 +14°C° 0.3 mm 6 m/S 743 mmHg 67%
    07:00 +12°C° 0.3 mm 7 m/S 744 mmHg 73%
    08:00 +10°C° 0.3 mm 7 m/S 744 mmHg 79%
    09:00 +10°C° 0.7 mm 7 m/S 745 mmHg 76%
    10:00 +10°C° 0.7 mm 7 m/S 745 mmHg 73%
    11:00 +10°C° 0.7 mm 7 m/S 746 mmHg 70%
    12:00 +12°C° 0 mm 7 m/S 746 mmHg 64%
    13:00 +14°C° 0 mm 7 m/S 746 mmHg 59%
    14:00 +15°C° 0 mm 7 m/S 746 mmHg 53%
    15:00 +15°C° 0 mm 6 m/S 746 mmHg 53%
    16:00 +15°C° 0 mm 5 m/S 746 mmHg 52%
    17:00 +15°C° 0 mm 4 m/S 746 mmHg 51%
    18:00 +14°C° 0 mm 4 m/S 746 mmHg 56%
    19:00 +13°C° 0 mm 3 m/S 747 mmHg 60%
    20:00 +12°C° 0 mm 3 m/S 747 mmHg 65%
    21:00 +11°C° 0 mm 3 m/S 747 mmHg 68%
    22:00 +11°C° 0 mm 3 m/S 747 mmHg 70%
    23:00 +10°C° 0 mm 3 m/S 747 mmHg 73%

    24 September, Montag

    Zeit Temperatur Niederschläge Wind Luftdruck Luftfeuchtigkeit
    00:00 +10°C° 0 mm 2 m/S 747 mmHg 74%
    01:00 +10°C° 0 mm 2 m/S 747 mmHg 74%
    02:00 +9°C° 0 mm 2 m/S 747 mmHg 75%
    03:00 +9°C° 0 mm 2 m/S 747 mmHg 76%
    04:00 +9°C° 0 mm 2 m/S 746 mmHg 76%
    05:00 +9°C° 0 mm 2 m/S 746 mmHg 76%
    06:00 +10°C° 0 mm 2 m/S 746 mmHg 71%
    07:00 +11°C° 0 mm 3 m/S 746 mmHg 66%
    08:00 +13°C° 0 mm 4 m/S 745 mmHg 60%
    09:00 +14°C° 0 mm 5 m/S 745 mmHg 54%
    10:00 +16°C° 0 mm 6 m/S 744 mmHg 48%
    11:00 +18°C° 0 mm 7 m/S 744 mmHg 42%
    12:00 +18°C° 0 mm 8 m/S 743 mmHg 40%
    13:00 +20°C° 0 mm 8 m/S 742 mmHg 39%
    14:00 +21°C° 0 mm 9 m/S 741 mmHg 37%
    15:00 +21°C° 0 mm 8 m/S 740 mmHg 40%
    16:00 +20°C° 0 mm 8 m/S 739 mmHg 44%
    17:00 +20°C° 0 mm 7 m/S 739 mmHg 47%
    18:00 +18°C° 0.1 mm 8 m/S 738 mmHg 53%
    19:00 +18°C° 0.1 mm 9 m/S 738 mmHg 59%
    20:00 +17°C° 0.1 mm 10 m/S 738 mmHg 64%
    21:00 +16°C° 1.6 mm 9 m/S 738 mmHg 70%
    22:00 +15°C° 1.6 mm 7 m/S 738 mmHg 75%
    23:00 +15°C° 1.6 mm 6 m/S 738 mmHg 81%
    Mehr zeigen